Tracking 28790 objects as of 19-Apr-2024
HD Live streaming from Space Station
objects crossing your sky now

FENGYUN 1C DEB

Track FENGYUN 1C DEB now!
10-day predictions


NORAD ID: 32165
Int'l Code: 1999-025CTK
Perigee: 799.4 km
Apogee: 1,018.3 km
Inclination: 98.6 °
Period: 103.0 minutes
Semi major axis: 7279 km
RCS: 0.0146 m2 (small)
Launch date: May 10, 1999
Source: People's Republic of China (PRC)
Launch site: Taiyaun Space Center, China (TSC)

Note: This is SATELLITE DEBRIS
Your satellite tracking list
Your tracking list is empty




NASA's NSSDC Master Catalog

Two Line Element Set (TLE):
1 32165U 99025CTK 24088.11189370  .00004826  00000-0  31270-2 0  9999
2 32165  98.5867  42.5030 0150334  89.8812 271.9578 13.97724789543860
Source of the keplerian elements: AFSPC